Location: Madrid
(40.4000°N, 3.6830°W)
Time: 19:37:46
(UTC+01:00)

ISS - Pass Details

Date: 19 January 2021
Orbit: 418 x 421 km, 51.6° (Epoch: 24 January)

Event Time Altitude Azimuth Distance (km) Brightness Sun altitude
Rises 19:22:51 0° 220° (SW) 2,355 1.1 -12.4°
Reaches altitude 10° 19:24:58 10° 215° (SW) 1,496 -0.2 -12.8°
Maximum altitude 19:28:14 51° 139° (SE) 536 -3.4 -13.4°
Enters shadow 19:29:49 26° 75° (ENE) 860 -2.8 -13.7°
